logo tempoitalia

Diretta Meteo Milano-Linate, Italiasabato 21 maggio ore 11:20

Mappa
Sereno 26 °C Sereno 24 Ore: T.min 19 T.max 31
Ponente Ovest/Sud-Ovest Km/h 11.1 Punto di rugiada: 16 °C Umidità: 54% Visibilità: 10 Km
Il sole sorge alle: 05:44 Il sole tramonta alle: 20:54
21 Maggio 2022 11:20 tempo osservato: Sereno Sereno 26 54 1018 vento: Nord O/SO 11.1
21 Maggio 2022 10:50 tempo osservato: Sereno Sereno 25 57 1019 vento: Nord O 11.1
21 Maggio 2022 10:20 tempo osservato: Sereno Sereno 24 60 1019 vento: Nord O 13
21 Maggio 2022 09:50 tempo osservato: Sereno Sereno 23 64 1019 vento: Nord O 11.1
21 Maggio 2022 09:20 tempo osservato: Sereno Sereno 23 64 1019 vento: Nord O 14.8
21 Maggio 2022 08:50 tempo osservato: Sereno Sereno 22 68 1019 vento: Nord O 14.8
21 Maggio 2022 08:20 tempo osservato: Sereno Sereno 21 68 1019 vento: Nord O 16.7
21 Maggio 2022 07:50 tempo osservato: Sereno Sereno 21 68 1019 vento: Nord O 13
21 Maggio 2022 07:20 tempo osservato: Sereno Sereno 20 72 1019 vento: Nord O 7.4
21 Maggio 2022 06:50 tempo osservato: Sereno Sereno 20 72 1020 vento: Nord O 11.1
21 Maggio 2022 06:20 tempo osservato: Sereno Sereno 19 72 1019 vento: Nord O 9.3
21 Maggio 2022 05:50 tempo osservato: Sereno Sereno 20 68 1019 vento: Nord O 9.3
21 Maggio 2022 05:20 tempo osservato: Sereno Sereno 20 68 1020 vento: Nord O 7.4
21 Maggio 2022 04:20 tempo osservato: Sereno Sereno 20 68 1020 vento: Nord O 9.3
21 Maggio 2022 03:20 tempo osservato: Sereno Sereno 20 72 1020 vento: Nord O 9.3
21 Maggio 2022 02:50 tempo osservato: Sereno Sereno 21 68 1020 vento: Nord O 13
21 Maggio 2022 02:20 tempo osservato: Sereno Sereno 21 64 1020 vento: Nord O 13
21 Maggio 2022 01:50 tempo osservato: Sereno Sereno 21 64 1021 vento: Nord O 11.1
21 Maggio 2022 01:20 tempo osservato: Sereno Sereno 22 56 1021 vento: Nord O 13
21 Maggio 2022 00:50 tempo osservato: Sereno Sereno 22 56 1021 vento: Nord O/NO 9.3
21 Maggio 2022 00:20 tempo osservato: Sereno Sereno 22 56 1021 vento: Nord O/NO 13
20 Maggio 2022 23:50 tempo osservato: Sereno Sereno 22 56 1021 vento: Nord O 16.7
20 Maggio 2022 23:20 tempo osservato: Sereno Sereno 23 53 1021 vento: Nord O 14.8
20 Maggio 2022 22:50 tempo osservato: Sereno Sereno 23 53 1021 vento: Nord O 13
20 Maggio 2022 22:20 tempo osservato: Sereno Sereno 24 50 1021 vento: Nord O 13
20 Maggio 2022 21:50 tempo osservato: Sereno Sereno 25 44 1021 vento: Nord O/SO 11.1
20 Maggio 2022 21:20 tempo osservato: Sereno Sereno 25 44 1021 vento: Nord O/SO 13
20 Maggio 2022 20:50 tempo osservato: Sereno Sereno 26 41 1021 vento: Nord O/SO 11.1
20 Maggio 2022 20:20 tempo osservato: Sereno Sereno 28 34 1021 vento: Nord O/SO 13
20 Maggio 2022 19:50 tempo osservato: Sereno Sereno 29 32 1021 vento: Nord SO 11.1
20 Maggio 2022 19:20 tempo osservato: Sereno Sereno 29 35 1021 vento: Nord SO 9.3
20 Maggio 2022 18:50 tempo osservato: Sereno Sereno 30 33 1021 vento: Nord SO 13
20 Maggio 2022 18:20 tempo osservato: Sereno Sereno 31 31 1021 vento: Nord O/SO 9.3
20 Maggio 2022 17:50 tempo osservato: Sereno Sereno 31 33 1021 vento: Nord O/SO 9.3
20 Maggio 2022 17:20 tempo osservato: Sereno Sereno 31 35 1022 vento: Nord SO 11.1
20 Maggio 2022 16:50 tempo osservato: Sereno Sereno 30 40 1022 vento: Nord N 9.3
20 Maggio 2022 16:20 tempo osservato: Sereno Sereno 30 40 1022 vento: Nord O 7.4
20 Maggio 2022 15:50 tempo osservato: Sereno Sereno 30 40 1023 vento: Nord S 13
20 Maggio 2022 15:20 tempo osservato: Sereno Sereno 30 42 1023 vento: Nord N 9.3
20 Maggio 2022 14:50 tempo osservato: Sereno Sereno 29 42 1024 vento: Nord N 7.4
20 Maggio 2022 14:20 tempo osservato: Sereno Sereno 29 39 1024 vento: Nord N 9.3
20 Maggio 2022 13:50 tempo osservato: Sereno Sereno 29 42 1024 vento: Nord N 9.3
20 Maggio 2022 13:20 tempo osservato: Sereno Sereno 29 42 1025 vento: Nord SO 11.1
20 Maggio 2022 12:50 tempo osservato: Sereno Sereno 28 42 1025 vento: Nord S/SO 7.4
20 Maggio 2022 12:20 tempo osservato: Sereno Sereno 27 44 1025 vento: Nord N 7.4
20 Maggio 2022 11:50 tempo osservato: Sereno Sereno 27 42 1026 vento: Nord N 5.5